Hurghada, Egypt

5:55 AM EET on August 27, 2016 (GMT +0200)
Hurghada International

Weather History for HEGN - November, 2012

Change the Weather History Date:

Tuesday, November 13, 2012

  Actual Average Record
Temperature  
Mean Temperature 72 °F -  
Max Temperature 79 °F 74 °F 90 °F (2013)
Min Temperature 64 °F 59 °F 59 °F (2006)
Cooling Degree Days 6    
Growing Degree Days 22 (Base 50)    
Moisture  
Dew Point 55 °F    
Average Humidity 58    
Maximum Humidity 73    
Minimum Humidity 39    
Precipitation  
Precipitation 0.00 in - - ()
Sea Level Pressure  
Sea Level Pressure 29.98 in    
Wind  
Wind Speed 12 mph ()    
Max Wind Speed 20 mph    
Max Gust Speed -    
Visibility 6.0 miles    
Events      
Averages and records for this station are not official NWS values.
T = Trace of Precipitation, MM = Missing Value Source: Averaged Metar Reports

Daily Weather History Graph

Daily Weather History Graph

Search for Another Location

Airport or City:

Trip Planner

Search our weather history database for the weather conditions in past years. The results will help you decide how hot, cold, wet, or windy it might be!

Date:

Astronomy

Nov. 13, 2012 Rise Set
Actual Time 6:03 AM EET 4:54 PM EET
Civil Twilight 5:39 AM EET 5:18 PM EET
Nautical Twilight 5:11 AM EET 5:46 PM EET
Astronomical Twilight 4:43 AM EET 6:14 PM EET
Moon 5:17 AM EET (11/13) 4:31 PM EET (11/13)
Length of Visible Light 11h 39m
Length of Day
10h 50m
Waning Crescent, 0% of the Moon is Illuminated
Nov 13
Waning Crescent
Nov 14
New
Nov 20
First Quarter
Nov 28
Full
Dec 6
Last Quarter

Hourly Weather History & Observations

Time (EET) Temp. Dew Point Humidity Pressure Visibility Wind Dir Wind Speed Gust Speed Precip Events Conditions
12:00 AM 66.2 °F 51.8 °F 60% 29.98 in - NW 12.7 mph - N/A   Clear
1:00 AM 66.2 °F 53.6 °F 64% 29.98 in - NW 15.0 mph - N/A   Clear
2:00 AM 67 °F 55 °F 56% 29.99 in 6 mi WNW 12.7 mph - -  
2:00 AM 68.0 °F 55.4 °F 64% 29.98 in - WNW 12.7 mph - N/A   Clear
3:00 AM 66.2 °F 57.2 °F 73% 29.95 in - WNW 13.8 mph - N/A   Clear
4:00 AM 66.2 °F 57.2 °F 73% 29.98 in - WNW 10.4 mph - N/A   Clear
5:00 AM 66.2 °F 57.2 °F 73% 29.98 in - WNW 16.1 mph - N/A   Clear
6:00 AM 66.2 °F 57.2 °F 73% 29.98 in - WNW 17.3 mph - N/A   Clear
7:00 AM 66.2 °F 57.2 °F 73% 29.98 in - West 15.0 mph - N/A   Clear
8:00 AM 69 °F 57 °F 58% 30.01 in 6 mi WNW 18.4 mph - -   Scattered Clouds
8:00 AM 69.8 °F 57.2 °F 64% 30.01 in - WNW 18.4 mph - N/A   Clear
9:00 AM 73.4 °F 57.2 °F 57% 30.01 in - WNW 18.4 mph - N/A   Clear
10:00 AM - - N/A% 30.01 in - North - - N/A   Clear
11:00 AM 75.2 °F 53.6 °F 47% 30.01 in - North 11.5 mph - N/A   Clear
12:00 PM 77.0 °F 55.4 °F 47% 29.98 in - North 13.8 mph - N/A   Clear
1:00 PM 77.0 °F 53.6 °F 44% 29.95 in - North 9.2 mph - N/A   Clear
2:00 PM 78 °F 57 °F 39% 29.95 in 6 mi North 10.4 mph - -   Clear
2:00 PM 78.8 °F 57.2 °F 47% 29.95 in - North 10.4 mph - N/A   Clear
5:00 PM 75.2 °F 60.8 °F 61% 29.95 in - North 19.6 mph - N/A   Clear
6:00 PM 75.2 °F 57.2 °F 53% 29.95 in - NNW 15.0 mph - N/A   Clear
7:00 PM 71.6 °F 55.4 °F 57% 29.98 in - WNW 11.5 mph - N/A   Clear
8:00 PM 71 °F 52 °F 41% 29.99 in 6 mi WNW 12.7 mph - -   Clear
8:00 PM 71.6 °F 51.8 °F 50% 29.98 in - WNW 12.7 mph - N/A   Clear
9:00 PM 69.8 °F 50.0 °F 49% 29.98 in - West 13.8 mph - N/A   Clear
10:00 PM 69.8 °F 53.6 °F 56% 29.98 in - WNW 10.4 mph - N/A   Clear
11:00 PM 69.8 °F 55.4 °F 60% 29.98 in - WNW 11.5 mph - N/A   Clear